User: anonymous   Login
Location: *
(2.5500°S, 65.9667°W)
Time: 00:23:07
(UTC+00:00)
Language:

Explorer 7 - Orbit

View from above orbital plane
View from above orbital plane
View from above satellite
View from above satellite

Ground track
Ground track

The orbit data is extracted from the following two-line orbital elements,

1 00022U 59009A   24107.56381949  .00011504  00000-0  68920-3 0  9995
2 00022  50.2808 347.3162 0115592 229.0125 130.0784 15.05910719680116
Epoch (UTC): 16 April 2024 13:31:54
Eccentricity: 0.0115592
inclination: 50.2808°
perigee height: 468 km
apogee height: 629 km
right ascension of ascending node: 347.3162°
argument of perigee: 229.0125°
revolutions per day: 15.05910719
mean anomaly at epoch: 130.0784°
orbit number at epoch: 68011

The dashed part of the orbit path shows where the satellite is in the earth's shadow,  

DLR